Location: Los Angeles Flower Mart
(34.0414°N, 118.2498°W)
Time: 01:21:23
(UTC+00:00)

Daily predictions for brighter satellites

Satellite Brightness Start Highest point End
(mag) Time Altitude Azimuth Time Altitude Azimuth Time Altitude Azimuth
CSL-04 Rocket 4.0 03:13:13 10° SE 03:18:18 50° ENE 03:23:27 10° N
Cosmos 1400 Rocket 2.8 03:15:25 10° N 03:19:18 89° E 03:23:13 10° S
Cosmos 1544 4.1 03:16:50 10° NNE 03:19:54 27° E 03:22:56 10° SE
CENTAUR R/B 3.5 03:14:46 10° NNW 03:23:17 69° ENE 03:32:19 10° SE
Cosmos 2227 Rocket 3.7 03:19:18 10° N 03:23:36 22° ENE 03:27:54 10° ESE
Cosmos 1151 Rocket 3.2 03:21:29 10° S 03:25:39 52° E 03:29:47 10° NNE
deb Chang Zheng 4 3.5 03:22:45 10° SSE 03:26:52 84° W 03:31:01 10° NNW
Cosmos 1980 Rocket 3.5 03:23:25 10° SE 03:27:19 20° E 03:31:15 10° NE
COSMOS 2487 3.0 03:24:56 10° NNW 03:27:58 51° WSW 03:30:58 10° S
Cosmos 1725 Rocket 4.4 03:21:54 10° SSW 03:28:10 74° W 03:34:31 10° N
ASTRO E2 2.8 03:24:24 10° W 03:28:15 59° S 03:32:06 10° E
Resurs 1-3 4.4 03:26:32 10° SE 03:30:27 33° ENE 03:34:24 10° N
Cosmos 1743 Rocket 4.3 03:26:39 10° NNW 03:31:03 58° W 03:35:22 10° S
Cosmos 1812 4.1 03:27:59 10° SSW 03:31:35 41° W 03:35:12 10° N
USA 238 DEB 4.3 03:27:38 10° NNW 03:34:50 51° NE 03:42:06 11° SE
USA 238 4.3 03:27:45 10° NNW 03:34:56 51° NE 03:42:12 11° SE
Cosmos 1666 Rocket 4.3 03:30:53 10° NNE 03:34:58 36° E 03:39:02 10° SSE
Cosmos 1805 Rocket 3.7 03:31:21 10° N 03:35:48 78° W 03:40:12 10° S
SL-12 R/B (Aux Motor) 4.3 03:32:51 10° SW 03:37:51 60° SE 03:40:03 10° ENE
Cosmos 44 3.0 03:34:15 10° NNW 03:38:34 68° ENE 03:42:47 11° SE
USA 234 4.2 03:33:11 10° SSE 03:39:22 44° SW 03:45:33 10° WNW
Gbstr 26 Del rocket 4.2 03:32:51 10° NW 03:40:22 77° NE 03:46:03 12° SE
SJ 16-02 3.3 03:39:52 10° ESE 03:40:46 11° E 03:42:01 10° ENE
Okean O Rocket 4.2 03:38:56 10° SW 03:42:05 20° W 03:45:14 10° NW
Cosmos 1633 Rocket 3.7 03:39:45 10° NNE 03:43:48 36° E 03:47:26 12° SE
Cosmos 1697 Rocket 2.7 03:40:33 10° S 03:46:08 66° ESE 03:51:45 10° NNE
H-2A R/B 2.6 03:41:50 10° SSE 03:46:15 88° WSW 03:50:34 10° NNW
CZ-4 R/B 3.7 03:43:17 10° SSW 03:46:30 24° W 03:49:47 10° NW
OAO 3 Rocket 3.3 03:42:40 10° W 03:47:36 79° N 03:52:33 10° E
Cosmos 2360 4.2 03:43:34 10° S 03:49:10 66° ESE 03:54:48 10° NNE
Landsat 7 4.2 03:46:16 11° SE 03:50:32 45° ENE 03:55:01 10° N
Sich 1 3.5 03:48:13 10° NNW 03:52:31 61° W 03:56:45 10° S
Cosmos 1515 4.5 03:50:28 13° SSE 03:53:19 31° E 03:56:39 10° NNE
Cosmos 1570 Rocket 4.0 03:49:57 10° NNW 03:55:12 71° ENE 03:59:58 13° SSE
Resurs 01 Rocket 2.6 03:53:44 16° SE 03:56:33 31° ENE 04:00:26 10° N
Cosmos 1486 Rocket 4.0 03:52:40 10° S 03:57:54 66° ESE 04:03:09 10° NNE
SJ-6B 3.2 03:54:27 10° S 03:58:14 60° WSW 04:01:59 10° NNW
Tsikada Rocket 4.3 03:53:17 10° N 03:59:33 73° W 04:05:42 10° S
BREEZE-M DEB (TANK) 4.4 03:55:12 10° WSW 04:00:02 65° NNW 04:12:35 10° NE
Cosmos 1814 Rocket 4.1 03:55:23 10° NNW 04:00:30 74° WSW 04:05:36 10° S
Cosmos 2297 Rocket 2.2 03:55:13 10° NNW 04:00:52 69° ENE 04:05:25 16° SSE
Cosmos 1315 Rocket 2.8 03:57:19 10° N 04:01:22 71° E 04:04:40 15° SSE
Cosmos 1515 Rocket 3.9 03:59:00 12° SSE 04:02:41 42° E 04:06:49 10° NNE
ARGOS Delta rocket 4.3 03:59:11 10° NNE 04:04:33 53° E 04:09:45 10° S
Cosmos 1340 3.1 04:03:00 17° SSE 04:05:26 39° E 04:08:57 10° NNE
Cosmos 1184 Rocket 3.6 04:05:15 25° ESE 04:05:44 27° E 04:08:21 10° NNE
Cosmos 389 Rocket 4.2 04:03:37 10° NNE 04:06:04 18° ENE 04:06:38 17° E
Cosmos 405 3.4 04:03:24 10° N 04:06:38 39° E 04:08:03 25° SE
ATLAS 5 CENTAUR R/B 3.5 03:54:21 10° W 04:07:19 26° SSW 04:11:26 14° SSE
Okean-O 3.9 04:04:06 10° S 04:08:15 40° W 04:12:25 10° NNW
Meteor 1-10 Rocket 4.4 04:06:24 10° SSW 04:11:55 76° W 04:17:31 10° N
SL-16 R/B 4.2 04:15:42 10° E 04:15:42 10° E 04:15:44 10° E
IGS 5A 4.0 04:14:25 10° S 04:18:25 55° W 04:22:30 10° NNW
Cosmos 1743 3.5 04:15:58 10° NNE 04:19:24 32° E 04:20:13 29° ESE
Meteor 1-27 Rocket 3.7 04:16:08 10° S 04:21:51 79° E 04:27:42 10° N
PSLV R/B 4.3 04:18:39 10° N 04:22:38 62° WNW 04:26:36 10° SSW
CZ-4B R/B 1.5 04:20:21 10° N 04:23:30 65° WNW 04:26:11 13° SSW
Cosmos 1503 Rocket 3.9 04:21:51 10° S 04:27:02 71° ESE 04:32:20 10° NNE
ATLAS 2AS CENTAUR R/B 2.9 04:23:34 10° SSW 04:31:17 67° ESE 04:38:55 10° NE
Cosmos 2278 3.9 04:30:19 20° S 04:33:57 47° ESE 04:39:22 10° NNE
SPOT 1/Viking Rocket 3.5 04:34:06 29° SSE 04:36:49 74° ENE 04:41:58 10° N
Cosmos 2219 3.1 04:33:22 10° NNW 04:39:00 86° ENE 04:41:46 31° SSE
H-2A R/B 3.9 04:35:36 10° N 04:39:09 29° WNW 04:42:43 10° SW
Meteor 1-11 Rocket 3.9 04:35:44 10° N 04:41:44 82° W 04:45:34 23° S
Okean 1 3.4 04:44:53 52° ESE 04:45:15 54° E 04:49:10 10° NNE
Cosmos 2082 4.1 04:40:51 10° N 04:46:17 47° ENE 04:48:03 36° ESE
RESURS DK-1 2.2 04:45:24 47° S 04:46:23 65° ESE 04:50:28 10° NNE
Cosmos 1536 2.8 04:44:13 10° N 04:48:14 80° W 04:49:23 45° S
Cosmos 1464 Rocket 4.1 04:42:06 10° S 04:48:19 77° W 04:54:30 10° N
Cosmos 2263 Rocket 3.5 04:46:23 10° N 04:50:54 25° ENE 04:52:15 23° E
SL-4 R/B 2.6 04:52:34 10° NW 04:56:57 49° NE 04:57:41 44° ENE
Ariane Rocket 3.2 04:58:25 35° S 05:00:33 68° WSW 05:05:37 10° NNW
CZ-2C R/B 3.9 05:00:48 10° NNE 05:05:24 52° E 05:05:24 52° E
Cosmos 2227 Rocket 3.0 05:02:27 10° NW 05:07:50 45° WSW 05:10:21 28° SSW
ASTRO E2 3.9 05:04:35 10° W 05:07:05 31° SW 05:07:05 31° SW
Cosmos 1092 Rocket 4.3 05:03:19 10° N 05:09:11 44° E 05:10:09 41° ESE
Cosmos 1634 Rocket 4.2 05:08:17 44° ESE 05:09:15 47° E 05:15:09 10° NNE
Cosmos 1933 Rocket 3.9 05:06:17 10° NNW 05:10:42 62° W 05:11:39 48° SW
Nadezhda 4 Rocket 3.9 05:04:32 10° N 05:10:46 86° E 05:12:52 44° S
Cosmos 1980 Rocket 3.2 05:05:30 10° SW 05:10:52 46° WNW 05:16:18 10° N
SPOT 5 3.2 05:13:35 54° ESE 05:14:15 58° ENE 05:19:22 10° N
Gblst 52 Del rocket 4.4 05:10:11 10° SSW 05:17:14 65° SE 05:23:23 10° NE
Helios 1A Rocket 3.0 05:17:41 66° NNE 05:17:41 66° NNE 05:21:15 10° N
Cosmos 1975 4.3 05:14:13 10° NNE 05:16:41 27° NE 05:16:41 27° NE
Meteor 2-14 Rocket 4.3 05:12:13 10° N 05:18:19 83° E 05:19:53 53° SSE
SJ 16-02 2.2 05:16:43 26° SW 05:18:48 47° WNW 05:23:02 10° N
Cosmos 2322 Rocket 3.4 05:20:36 27° ENE 05:20:36 27° ENE 05:23:50 10° NE
Terra 2.5 05:19:10 40° ENE 05:19:10 40° ENE 05:23:23 10° N
Meteor 1-19 Rocket 4.5 05:19:16 30° SSW 05:21:53 62° W 05:27:14 10° N
Meteor 2-4 Rocket 3.7 05:22:05 60° SE 05:22:46 66° E 05:28:25 10° NNE
Milstar 3 Cent rocket 4.4 05:12:07 10° W 05:25:19 32° SW 05:28:23 27° S
Cosmos 783 Rocket 4.3 05:23:38 10° NNW 05:28:50 75° ENE 05:29:00 74° E
Timation 2 Rocket 4.1 05:23:58 10° NNW 05:30:40 90° SW 05:32:14 57° SSE
OAO 3 Rocket 3.3 05:26:15 10° W 05:30:38 66° WSW 05:30:38 66° WSW
SPOT 3 Rocket 3.9 05:30:22 48° SW 05:31:20 55° W 05:36:23 10° NNW
Resurs 01 Rocket 3.8 05:31:16 15° SW 05:33:02 18° W 05:36:07 10° NW
Spot 2 Rocket 3.3 05:34:06 83° SSW 05:34:17 86° WSW 05:39:21 10° NNW
Cosmos 2026 Rocket 3.9 05:29:15 10° N 05:35:23 64° E 05:35:58 61° ESE
Cosmos 773 Rocket 3.9 05:39:07 10° NNW 05:44:13 77° W 05:44:13 77° W
Meteor 2-8 Rocket 4.3 05:48:48 71° SSW 05:49:30 86° W 05:55:37 10° N
Cosmos 921 Rocket 4.5 05:50:51 10° NW 05:54:31 31° W 05:54:31 31° W
Cosmos 1346 Rocket 4.3 05:56:29 35° NNW 05:56:29 35° NNW 05:58:59 10° N
Cosmos 1627 Rocket 4.4 05:48:52 10° N 05:55:08 85° W 05:55:40 76° SSW
SL-16 R/B 2.2 05:57:28 76° W 05:57:39 77° WNW 06:03:21 10° NNE
USA 215 3.1 05:51:51 10° NE 05:58:09 69° ESE 05:58:09 69° ESE
CZ-3 Stage 3 4.4 05:53:48 10° W 05:58:20 27° WSW 05:58:20 27° WSW
USA 81 4.3 06:03:19 62° WNW 06:03:19 62° WNW 06:08:22 10° N
Meteor 2-15 4.5 06:05:02 65° WSW 06:05:33 69° W 06:11:36 10° N
Cosmos 158 Rocket 4.4 06:06:58 10° NNW 06:11:14 60° NW 06:11:14 60° NW
ERS-1 Rocket 3.9 06:12:43 40° W 06:12:43 40° W 06:17:00 10° NNW
Cosmos 2279 Rocket 3.9 06:12:36 81° W 06:12:37 81° W 06:18:51 10° N
ARIANE 5 R/B 3.9 06:15:52 39° NW 06:15:52 39° NW 06:18:54 10° NNW
Cosmos 44 Rocket 4.3 06:10:00 10° NNW 06:13:11 42° N 06:13:11 42° N
Cosmos 2360 Rocket 2.9 06:25:20 46° NNE 06:25:20 46° NNE 06:29:15 10° NNE
Cosmos 2263 Rocket 3.3 06:29:46 10° NW 06:33:56 35° W 06:33:56 35° W
ATLAS CENTAUR R/B 4.2 06:35:35 10° NNE 06:37:56 14° NE 06:37:56 14° NE
ATLAS 3B R/B 2.8 06:48:14 10° NNW 06:55:31 85° NNW 06:55:31 85° NNW
Terra 4.2 06:58:03 15° WNW 06:58:03 15° WNW 06:59:50 10° NW
Cosmos 2322 Rocket 3.7 07:02:20 28° WNW 07:02:53 29° WNW 07:07:43 10° N
Cosmos 2333 Rocket 3.2 07:07:35 43° NNE 07:07:35 43° NNE 07:11:18 10° NNE
Cosmos 1844 Rocket 3.7 07:09:25 10° NNW 07:13:07 43° NNW 07:13:07 43° NNW
CZ-4C R/B 4.3 07:18:22 10° NNW 07:25:02 33° NE 07:28:18 25° E
Cosmos 2219 Rocket 3.3 07:29:40 41° N 07:29:40 41° N 07:33:16 10° NNE
ADEOS Rocket 3.6 07:50:02 47° N 07:50:02 47° N 07:54:06 10° N
Cosmos 2237 Rocket 3.7 07:58:41 29° NE 07:58:41 29° NE 08:01:42 10° NE
COSMOS 2428 3.8 08:00:10 41° NNW 08:00:10 41° NNW 08:04:05 10° NNE
USA 267 3.7 08:11:25 51° ENE 08:12:16 55° NE 08:18:37 10° NW
ATLAS CENTAUR R/B 4.1 08:12:48 10° NW 08:13:56 17° NW 08:13:56 17° NW
Resurs 1-4 Rocket 4.4 08:14:25 10° NE 08:16:15 15° ENE 08:16:15 15° ENE
Cosmos 2278 Rocket 3.1 08:28:03 10° N 08:32:36 44° NE 08:32:36 44° NE
Cosmos 2315 Rocket 4.5 08:34:57 56° NE 08:34:57 56° NE 08:40:19 10° NNE
S3M 4.5 08:42:01 55° NW 08:42:01 55° NW 08:47:14 10° N
SL-16 R/B 3.6 08:45:29 30° ENE 08:45:29 30° ENE 08:49:10 10° NE
NOSS 3-1 (A) 4.1 08:40:48 10° NNW 08:48:48 85° ENE 08:50:03 69° SE
NOSS 3-1 (C) 4.5 08:48:33 10° NW 08:55:16 52° W 08:55:16 52° W
COSMOS 2455 4.3 08:57:22 27° E 08:57:22 27° E 09:01:36 10° NE
Meteor 1-24 Rocket 4.4 09:05:48 49° ENE 09:05:48 49° ENE 09:10:23 10° NNE
ATLAS 5 CENTAUR R/B 3.7 08:59:34 10° NW 09:04:57 38° NNW 09:04:57 38° NNW
Meteor 2-10 Rocket 4.2 09:02:21 10° N 09:06:50 56° NNE 09:06:50 56° NNE
Lacrosse 5 2.8 09:14:24 46° NNE 09:14:24 46° NNE 09:18:05 10° NE
CZ-4C R/B 3.2 09:06:20 10° NW 09:13:24 59° W 09:13:24 59° W
Lacrosse 5 rocket 3.6 09:19:29 21° NE 09:19:29 21° NE 09:20:55 10° NE
Meteor 2-5 Rocket 3.9 09:27:59 69° NNW 09:27:59 69° NNW 09:33:03 10° N
CZ-2D R/B 2.3 09:24:23 10° NNE 09:29:02 67° NNE 09:29:02 67° NNE
AQUA 4.5 09:32:15 10° NNE 09:36:12 51° ENE 09:36:12 51° ENE
Cosmos 2237 Rocket 3.8 09:40:30 22° WNW 09:40:32 22° WNW 09:44:55 10° N
Resurs 1-4 Rocket 2.5 09:52:35 10° N 09:57:19 49° WNW 09:57:19 49° WNW
Cosmos 292 Rocket 3.8 10:00:36 76° NE 10:00:36 76° NE 10:05:05 10° NNE
SL-16 R/B 2.4 10:00:07 58° SSE 10:01:29 88° WSW 10:07:44 10° NNW
Cosmos 1943 Rocket 2.2 09:59:03 10° NNW 10:04:44 76° ENE 10:06:33 44° SE
Cosmos 2297 4.2 10:01:06 10° NNW 10:06:47 60° ENE 10:10:28 22° SE
Cosmos 2228 4.4 10:05:50 10° NNE 10:09:49 34° E 10:11:19 26° ESE
ADEOS II 1.9 10:07:42 10° N 10:12:56 72° WNW 10:13:19 69° WSW
Cosmos 1536 Rocket 3.9 10:13:47 56° NW 10:13:47 56° NW 10:17:30 10° N
IDEFIX/ARIANE 42P 2.4 10:07:57 10° NNE 10:13:15 88° WNW 10:13:52 71° SSW
Cosmos 2074 Rocket 4.0 10:09:51 10° NNW 10:16:05 66° W 10:17:15 55° SW
OAO 2 Rocket 3.7 10:16:57 49° SE 10:16:57 49° SE 10:21:12 10° E
Cosmos 2278 Rocket 4.2 10:13:16 10° WNW 10:14:24 14° WNW 10:14:24 14° WNW
Cosmos 1455 3.7 10:19:09 10° NNW 10:21:07 28° NNW 10:21:07 28° NNW
Cosmos 1295 Rocket 4.4 10:17:00 10° N 10:23:23 89° E 10:26:12 36° S
NOSS 3-3 (A) 3.6 10:23:18 57° SSW 10:24:30 83° ESE 10:30:35 10° NNE
NOSS 3-3 (C) 3.6 10:23:24 57° SSW 10:24:36 82° ESE 10:30:41 10° NNE
Cosmos 614 Rocket 4.1 10:19:54 10° NNW 10:25:06 73° ENE 10:27:52 28° SSE
Meteor 1-21 Rocket 4.3 10:23:46 42° SSE 10:25:42 72° E 10:31:16 10° NNE
Cosmos 1271 Rocket 2.7 10:24:11 10° N 10:27:50 77° NNE 10:27:50 77° NNE
SL-16 R/B 3.4 10:27:21 26° WNW 10:28:11 27° WNW 10:33:00 10° N
IRS-1D 3.6 10:23:19 10° NNE 10:28:38 75° ESE 10:30:15 45° S
UNK 4.2 10:30:44 44° WNW 10:30:44 44° WNW 10:34:32 10° NNW
DNEPR-1 R/B 3.4 10:29:53 66° SE 10:30:09 68° ESE 10:34:30 10° NE
Cosmos 2251 Rocket 4.5 10:25:14 10° N 10:30:19 46° ENE 10:35:23 10° SE
Cosmos 2184 Rocket 4.2 10:25:21 10° NNW 10:31:19 50° W 10:32:27 45° WSW
Cosmos 2369 Rocket 3.2 10:25:59 10° N 10:31:20 45° ENE 10:36:39 10° SE
Cosmos 1610 Rocket 4.3 10:28:44 10° N 10:34:52 76° W 10:37:27 37° S
COSMOS 2441 4.2 10:32:55 10° N 10:37:47 85° WNW 10:38:59 52° SSW
MOS 1 Rocket 3.8 10:39:45 37° WNW 10:39:45 37° WNW 10:43:02 10° NNW
COSMOS 2455 3.6 10:40:30 32° W 10:42:16 38° WNW 10:47:53 10° N
Cosmos 1606 Rocket 4.2 10:38:18 10° N 10:42:38 54° E 10:45:25 20° SSE
Cosmos 2181 Rocket 4.3 10:42:09 19° SSE 10:46:39 63° E 10:52:45 10° NNE
Helios 1B rocket 2.9 10:44:39 10° NNE 10:48:39 55° E 10:50:15 32° SSE
Cosmos 962 Rocket 4.4 10:43:26 10° N 10:49:35 84° E 10:54:49 15° S
Cosmos 1328 3.6 10:49:40 55° S 10:50:28 90° W 10:54:27 10° N
Cosmos 1603 3.6 10:49:16 38° SSW 10:51:31 82° WNW 10:57:11 10° NNE
ALOS 3.5 10:48:47 10° NNE 10:53:06 36° E 10:56:51 13° SSE
Helios 1A 3.4 10:56:15 40° W 10:56:15 40° W 11:00:11 10° NNW
Lacrosse 5 rocket 3.8 10:55:18 10° NW 10:56:37 11° NNW 10:57:56 10° NNW
Lacrosse 5 4.2 10:54:19 10° WNW 10:56:48 13° NNW 10:59:18 10° N
MOS 1-B Rocket 4.4 10:51:25 10° SSE 10:56:56 57° ENE 11:02:28 10° N
CZ-2C R/B 3.4 10:54:56 10° NNE 10:59:46 44° E 11:04:03 12° S
MSX 4.3 10:55:57 10° N 11:01:21 43° WNW 11:03:41 29° WSW
Chunghua 1 4.3 11:01:47 44° WNW 11:02:48 85° N 11:06:21 10° E
Lacrosse 4 Rocket 2.9 11:03:46 15° SSE 11:06:43 32° ESE 11:10:31 10° NE
CZ-2D R/B 4.3 11:07:57 10° NW 11:08:59 11° WNW 11:10:01 10° WNW
Cosmos 1892 Rocket 3.6 11:10:34 30° SSW 11:12:38 65° W 11:17:06 10° N
Cosmos 1371 Rocket 3.9 11:10:42 25° SSW 11:13:46 84° WNW 11:18:57 10° NNE
GPS 2-04 Rocket1 2.2 11:12:57 43° WSW 11:13:57 82° SSE 11:17:29 10° ENE
Cosmos 1825 4.0 11:11:46 10° SSE 11:15:00 28° E 11:18:13 10° NNE
Cosmos 407 Rocket 3.8 11:11:33 10° NNW 11:16:52 71° ENE 11:22:03 10° SSE
Meteor 1-11 4.2 11:16:50 16° S 11:21:37 83° W 11:27:27 10° N
Cosmos 1726 Rocket 3.5 11:17:41 10° NNW 11:22:03 65° W 11:25:45 14° S
Cosmos 1943 3.9 11:19:48 23° WSW 11:22:43 38° WNW 11:28:00 10° N
BREEZE-M DEB (TANK) 4.4 11:20:17 15° W 11:23:15 25° NW 11:25:38 10° NNE
[s.n.52708] 4.0 11:24:35 24° WNW 11:25:23 29° NW 11:27:54 10° NNE
[s.n.52707] 4.0 11:24:42 24° WNW 11:25:30 29° NW 11:28:01 10° NNE
[s.n.52703] 4.0 11:24:49 24° WNW 11:25:37 28° NW 11:28:08 10° NNE
[s.n.52705] 4.0 11:24:55 24° WNW 11:25:44 28° NW 11:28:15 10° NNE
[s.n.52706] 4.0 11:25:02 24° WNW 11:25:51 28° NW 11:28:22 10° NNE
[s.n.52701] 4.0 11:25:09 24° WNW 11:25:58 28° NW 11:28:29 10° NNE
[s.n.52704] 4.0 11:25:16 24° WNW 11:26:05 28° NW 11:28:36 10° NNE
[s.n.52699] 4.0 11:25:23 24° WNW 11:26:12 28° NW 11:28:43 10° NNE
[s.n.52702] 4.0 11:25:29 24° WNW 11:26:19 28° NW 11:28:50 10° NNE
[s.n.52697] 4.0 11:25:36 23° WNW 11:26:26 28° NW 11:28:57 10° NNE
[s.n.52700] 4.0 11:25:43 23° WNW 11:26:33 28° NW 11:29:04 10° NNE
Meteor 2-1 Rocket 4.3 11:21:06 10° NNW 11:26:40 56° W 11:32:06 10° S
[s.n.52695] 4.0 11:25:50 23° WNW 11:26:41 28° NW 11:29:11 10° NNE
[s.n.52698] 4.0 11:25:56 23° WNW 11:26:48 28° NW 11:29:18 10° NNE
Cosmos 1140 Rocket 3.4 11:21:33 10° NNW 11:26:49 87° WSW 11:32:02 10° SSE
[s.n.52693] 4.0 11:26:03 23° WNW 11:26:55 28° NW 11:29:26 10° NNE
[s.n.52696] 4.0 11:26:10 23° WNW 11:27:02 28° NW 11:29:32 10° NNE
[s.n.52691] 4.1 11:26:17 23° WNW 11:27:09 27° NW 11:29:39 10° NNE
[s.n.52689] 4.1 11:26:24 23° WNW 11:27:16 27° NW 11:29:46 10° NNE
[s.n.52694] 4.1 11:26:31 23° WNW 11:27:24 27° NW 11:29:53 10° NNE
[s.n.52692] 4.1 11:26:38 23° WNW 11:27:31 27° NW 11:30:00 10° NNE
[s.n.52687] 4.1 11:26:44 22° WNW 11:27:38 27° NW 11:30:07 10° NNE
[s.n.52685] 4.1 11:26:51 22° WNW 11:27:45 27° NW 11:30:14 10° NNE
[s.n.52690] 4.1 11:26:58 22° WNW 11:27:52 27° NW 11:30:21 10° NNE
[s.n.52688] 4.1 11:27:05 22° WNW 11:27:59 27° NW 11:30:29 10° NNE
[s.n.52683] 4.1 11:27:12 22° WNW 11:28:06 27° NW 11:30:36 10° NNE
[s.n.52686] 4.1 11:27:19 22° WNW 11:28:13 27° NW 11:30:43 10° NNE
[s.n.52681] 4.1 11:27:26 22° WNW 11:28:21 27° NW 11:30:50 10° NNE
[s.n.52679] 4.1 11:27:33 22° WNW 11:28:28 27° NW 11:30:57 10° NNE
[s.n.52684] 4.1 11:27:40 22° WNW 11:28:35 27° NW 11:31:05 10° NNE
[s.n.52682] 4.1 11:27:46 22° WNW 11:28:42 26° NW 11:31:11 10° NNE
[s.n.52677] 4.1 11:27:53 22° WNW 11:28:50 26° NW 11:31:18 10° NNE
[s.n.52680] 4.1 11:28:01 21° WNW 11:28:58 26° NW 11:31:26 10° NNE
[s.n.52675] 4.1 11:28:07 21° WNW 11:29:05 26° NW 11:31:33 10° NNE
[s.n.52678] 4.1 11:28:14 21° WNW 11:29:12 26° NW 11:31:40 10° NNE
[s.n.52673] 4.1 11:28:22 21° WNW 11:29:20 26° NW 11:31:48 10° NNE
[s.n.52676] 4.2 11:28:29 21° WNW 11:29:27 26° NW 11:31:55 10° NNE
[s.n.52671] 4.2 11:28:37 21° WNW 11:29:35 26° NW 11:32:03 10° NNE
[s.n.52669] 4.2 11:28:44 21° WNW 11:29:42 26° NW 11:32:09 10° NNE
[s.n.52674] 4.2 11:28:50 21° WNW 11:29:49 26° NW 11:32:17 10° NNE
[s.n.52672] 4.2 11:28:56 21° WNW 11:29:56 26° NW 11:32:24 10° NNE
[s.n.52667] 4.2 11:29:05 21° WNW 11:30:04 26° NW 11:32:31 10° NNE
[s.n.52665] 4.2 11:29:11 21° WNW 11:30:11 26° NW 11:32:39 10° NNE
[s.n.52670] 4.2 11:29:18 21° WNW 11:30:19 26° NW 11:32:46 10° NNE
[s.n.52668] 4.2 11:29:26 20° WNW 11:30:27 25° NW 11:32:53 10° NNE
[s.n.52666] 4.2 11:29:33 20° WNW 11:30:34 25° NW 11:33:01 10° NNE
[s.n.52663] 4.2 11:29:40 20° WNW 11:30:41 25° NW 11:33:08 10° NNE
[s.n.52662] 4.2 11:29:47 20° WNW 11:30:48 25° NW 11:33:15 10° NNE
[s.n.52664] 4.2 11:29:54 20° WNW 11:30:56 25° NW 11:33:22 10° NNE
[s.n.52661] 4.2 11:30:02 20° WNW 11:31:04 25° NW 11:33:30 10° NNE
SeaSat 1 2.9 11:26:16 10° NNE 11:31:09 61° ESE 11:35:57 10° SSW
[s.n.52660] 4.2 11:30:08 20° WNW 11:31:11 25° NW 11:33:37 10° NNE
[s.n.52656] 4.2 11:30:16 20° WNW 11:31:19 25° NW 11:33:44 10° NNE
[s.n.52658] 4.2 11:30:23 20° WNW 11:31:26 25° NW 11:33:52 10° NNE
[s.n.52659] 4.2 11:30:30 20° WNW 11:31:34 25° NW 11:34:00 10° NNE
[s.n.52657] 4.2 11:30:38 20° WNW 11:31:42 25° NW 11:34:07 10° NNE
Cosmos 1892 2.6 11:29:36 18° SSW 11:32:19 72° W 11:36:05 10° N
Cosmos 2366 rocket 3.9 11:27:02 10° N 11:33:12 75° W 11:39:22 10° S
Cosmos 1484 Rocket 4.5 11:29:49 10° NNE 11:33:20 32° E 11:36:51 10° SSE
BREEZE-M DEB (TANK) 3.6 11:32:30 21° W 11:34:25 53° NNW 11:41:55 10° NE
Cosmos 2341 Rocket 4.3 11:28:42 10° NNW 11:34:47 48° W 11:40:51 10° SSW
SL-24 DEB 4.4 11:30:50 11° S 11:35:18 57° W 11:39:57 10° NNW
SL-8 Rocket 4.2 11:34:05 10° NNW 11:40:12 53° W 11:46:17 10° SSW
IRS-1C 4.1 11:35:23 10° N 11:40:42 71° WNW 11:45:59 10° SSW
Cosmos 1408 3.0 11:38:52 19° SW 11:41:07 42° W 11:44:35 10° N
DELTA 2 DEB (DPAF) 4.1 11:42:46 10° SSE 11:47:11 87° ENE 11:51:38 10° NNW
Cosmos 1943 Rocket 4.0 11:46:06 10° W 11:47:42 11° W 11:47:58 11° W
FENGYUN 3A 4.0 11:43:04 10° N 11:48:13 48° WNW 11:53:13 11° SW
Cosmos 2263 4.4 11:45:39 10° NNW 11:51:08 49° WSW 11:56:36 10° S
ARIANE 5 R/B 2.5 11:47:26 10° N 11:52:26 64° WNW 11:57:21 10° SSW
